User: anonymous   Login
Location: Heilwood
(40.6210°N, 78.9150°W)
Time: 16:00:04
(UTC-05:00)
Language:

Iridium 4 Rocket - Orbit

View from above orbital plane
View from above orbital plane
View from above satellite
View from above satellite

Ground track
Ground track

The orbit data is extracted from the following two-line orbital elements,

1 24797U 97020F   18019.82455403 +.00000129 +00000-0 +22960-4 0  9992
2 24797 086.8959 274.0070 0223858 315.4877 083.8057 14.44033654089179
Epoch (UTC): 19 January 2018 19:47:21
Eccentricity: 0.0223858
inclination: 86.8959°
perigee height: 586 km
apogee height: 904 km
right ascension of ascending node: 274.0070°
argument of perigee: 315.4877°
revolutions per day: 14.44033654
mean anomaly at epoch: 83.8057°
orbit number at epoch: 8917

The dashed part of the orbit path shows where the satellite is in the earth's shadow,  

DLR